Change the Weather History Date:

Friday, August 23, 2013

  Actual Average Record
Temperature  
Mean Temperature 80 °F 69 °F  
Max Temperature 95 °F 83 °F 101 °F (1969)
Min Temperature 65 °F 55 °F 28 °F (1928)
Degree Days  
Heating Degree Days 0 1  
Month to date heating degree days 5 15  
Since 1 June heating degree days 99 138  
Since 1 July heating degree days 15 33  
Cooling Degree Days 15 5  
Month to date cooling degree days 145 163  
Year to date cooling degree days 375 462  
Since 1 June cooling degree days 366 445  
Growing Degree Days 30 (Base 50)    
Moisture  
Dew Point 58 °F    
Average Humidity 57    
Maximum Humidity 84    
Minimum Humidity 30    
Precipitation  
Precipitation 0.00 in 0.03 in 2.41 in (2014)
Month to date precipitation 0.15 0.95  
Year to date precipitation 12.56 8.88  
Snow  
Snow 0.00 in 0.00 in 0.00 in (2002)
Month to date snowfall 0.0 0.0  
Since 1 June snowfall 0.0 0.0  
Since 1 July snowfall 0.0 0.0  
Snow Depth 0.00 in    
Sea Level Pressure  
Sea Level Pressure 29.73 in    
Wind  
Wind Speed 9 mph (SE)    
Max Wind Speed 15 mph    
Max Gust Speed 21 mph    
Visibility 10 miles    
Events      
T = Trace of Precipitation, MM = Missing Value Source: NWS Daily Summary

Daily Weather History Graph

Daily Weather History Graph

Search for Another Location

Airport or City:

Trip Planner

Search our weather history database for the weather conditions in past years. The results will help you decide how hot, cold, wet, or windy it might be!

Date:

Astronomy

Aug. 23, 2013 Rise Set
Actual Time 6:12 AM MDT 8:04 PM MDT
Civil Twilight 5:38 AM MDT 8:37 PM MDT
Nautical Twilight 4:57 AM MDT 9:18 PM MDT
Astronomical Twilight 4:12 AM MDT 10:03 PM MDT
Moon 9:04 PM MDT (8/23) 9:29 AM MDT (8/23)
Length of Visible Light 14h 59m
Length of Day
13h 52m
Waning Gibbous, 91% of the Moon is Illuminated
Aug 23
Waning Gibbous
Aug 28
Last Quarter
Sep 5
New
Sep 12
First Quarter
Sep 19
Full

Hourly Weather History & Observations

Time (MDT) Temp. Heat Index Dew Point Humidity Pressure Visibility Wind Dir Wind Speed Gust Speed Precip Events Conditions
12:53 AM 70.0 °F - 57.9 °F 65% 29.85 in 10.0 mi ESE 11.5 mph - N/A   Clear
1:53 AM 68.0 °F - 57.9 °F 70% 29.83 in 10.0 mi ESE 10.4 mph - N/A   Clear
2:53 AM 66.0 °F - 57.9 °F 75% 29.82 in 10.0 mi ESE 11.5 mph - N/A   Clear
3:53 AM 66.0 °F - 59.0 °F 78% 29.81 in 10.0 mi ESE 11.5 mph - N/A   Clear
4:53 AM 64.9 °F - 59.0 °F 81% 29.79 in 10.0 mi East 9.2 mph - N/A   Clear
5:53 AM 66.0 °F - 59.0 °F 78% 29.79 in 10.0 mi East 9.2 mph - N/A   Clear
6:53 AM 66.0 °F - 59.0 °F 78% 29.80 in 10.0 mi ESE 10.4 mph - N/A   Clear
7:53 AM 68.0 °F - 59.0 °F 73% 29.79 in 10.0 mi ESE 12.7 mph - N/A   Clear
8:53 AM 71.1 °F - 60.1 °F 68% 29.78 in 10.0 mi ESE 13.8 mph - N/A   Clear
9:53 AM 73.9 °F - 61.0 °F 64% 29.77 in 10.0 mi SE 10.4 mph - N/A   Clear
10:53 AM 78.1 °F - 61.0 °F 56% 29.76 in 10.0 mi SSE 8.1 mph - N/A   Clear
11:53 AM 82.9 °F 83.3 °F 61.0 °F 47% 29.74 in 10.0 mi SSE 8.1 mph - N/A   Clear
12:53 PM 87.1 °F 87.0 °F 61.0 °F 41% 29.72 in 10.0 mi SE 11.5 mph 20.7 mph N/A   Clear
1:53 PM 90.0 °F 90.0 °F 61.0 °F 38% 29.70 in 10.0 mi SE 9.2 mph 18.4 mph N/A   Clear
2:53 PM 93.0 °F 92.7 °F 60.1 °F 33% 29.69 in 10.0 mi South 11.5 mph - N/A   Clear
3:53 PM 93.9 °F 92.6 °F 57.0 °F 29% 29.67 in 10.0 mi South 8.1 mph 17.3 mph N/A   Clear
4:53 PM 93.9 °F 92.6 °F 57.0 °F 29% 29.65 in 10.0 mi South 8.1 mph - N/A   Clear
5:53 PM 91.9 °F 90.3 °F 55.9 °F 30% 29.63 in 10.0 mi South 6.9 mph - N/A   Clear
6:53 PM 89.1 °F 88.2 °F 59.0 °F 36% 29.64 in 10.0 mi South 3.5 mph - N/A   Clear
7:53 PM 82.9 °F 82.0 °F 55.0 °F 38% 29.65 in 10.0 mi North 6.9 mph - N/A   Clear
8:53 PM 78.1 °F - 52.0 °F 40% 29.67 in 10.0 mi NNE 8.1 mph - N/A   Clear
9:53 PM 79.0 °F - 52.0 °F 39% 29.68 in 10.0 mi NE 6.9 mph - N/A   Clear
10:53 PM 77.0 °F - 54.0 °F 45% 29.70 in 10.0 mi SW 6.9 mph - N/A   Partly Cloudy
11:53 PM 77.0 °F - 51.1 °F 40% 29.68 in 10.0 mi West 5.8 mph - N/A   Clear